Location: Brunembert
(50.7122°N, 1.8935°E)
Time: 09:35:08
(UTC+00:00)

MOS 1 - Pass Details

Date: 22 April 2021
Orbit: 879 x 891 km, 99.1° (Epoch: 05 May)

Event Time Altitude Azimuth Distance (km) Brightness Sun altitude
Rises 19:31:28 0° 156° (SSE) 3,465 6.9 -5.5°
Reaches altitude 10° 19:33:51 10° 154° (SSE) 2,531 6.2 -5.8°
Maximum altitude 19:39:27 74° 71° (ENE) 919 4.3 -6.6°
Drops below altitude 10° 19:45:07 10° 347° (NNW) 2,552 7.4 -7.4°
Sets 19:47:31 0° 346° (NNW) 3,497 8.2 -7.7°
